Regional Weather Roundup
Issued by NWS

Home | Current Version | Previous Version | Text Only | Print | Product List | Glossary On
Versions: 1 2 3 4 5 6 7 8 9 10 11 12 13 14 15 16 17 18 19 20 21 22 23 24 25 26 27 28 29 30 31 32 33 34 35 36 37 38 39 40 41 42 43 44 45 46 47 48 49 50
000
ASHW40 PHFO 301712
RWRHI

WEATHER ROUNDUP FOR HAWAII
NATIONAL WEATHER SERVICE HONOLULU HI
700 AM HST FRI SEP 30 2016

THIS IS AN AUTOMATED REPORT THAT HAS NOT BEEN QUALITY CONTROLLED.

NOTE..."FAIR" INDICATES FEW OR NO CLOUDS BELOW 12,000 FEET WITH NO
SIGNIFICANT WEATHER AND/OR OBSTRUCTIONS TO VISIBILITY.

* - THESE SITES REPORT LIMITED FIELDS

HIZ001>004-301800-
KAUAI-NIIHAU-

CITY           SKY/WX    TMP DP  RH WIND       PRES   REMARKS
LIHUE APT      CLOUDY    77  72  84 NE15      30.08R
PORT ALLEN*      N/A     77 N/A N/A E17G23      N/A
POIPU*           N/A     77 N/A N/A NE9G16      N/A
PRINCEVILLE*     N/A     73 N/A N/A SE5         N/A
KOKOLE POINT*  NOT AVBL
MOLOAA DAIRY*    N/A     73  72  94 E5G21       N/A
WAIMEA HTS*    NOT AVBL
PUU OPAE*      NOT AVBL
PUU LUA*       NOT AVBL
MAKAHA RIDGE*  NOT AVBL
$$

HIZ005>011-301800-
OAHU-

CITY           SKY/WX    TMP DP  RH WIND       PRES   REMARKS
HONOLULU       PTCLDY    75  67  76 VRB6      30.05R
KALAELOA       CLEAR     77  67  71 NE7       30.05R
KANEOHE MCB    CLEAR     79  70  74 E8G18     30.04R
WHEELER FIELD  FAIR      72  69  88 CALM      30.06R
BELLOWS*       NOT AVBL
WHEELER*       NOT AVBL
WAIANAE HARBOR NOT AVBL
DILLINGHAM*      N/A     88  84  89 MISG        N/A  HX 112
KAHUKU TRN*      N/A     82  75  78 W13G23      N/A
KAWAILOA*        N/A     72  66  83 NE9G21      N/A
KII*             N/A     79  70  73 E18G24      N/A
MAKUA RANGE*     N/A     75  66  73 W3G12       N/A
OAHU FOREST NW NOT AVBL
SCHOFIELD BRK*   N/A     79  75  89 SE1         N/A
SCHOFIELD S*   NOT AVBL
WAIANAE VLY*   NOT AVBL
KUAOKALA*      NOT AVBL
HONOULIUULI*   NOT AVBL
MOKUOLOE IS*   NOT AVBL
PALEHUA*       NOT AVBL
WAIAWA PHB*    NOT AVBL
$$

HIZ012>013-301800-
MOLOKAI-

CITY           SKY/WX    TMP DP  RH WIND       PRES   REMARKS
MOLOKAI AIRPT  MOCLDY    77  69  76 NE9G18    30.06R
KALAUPAPA      NOT AVBL
MAKAPULAPAI*   NOT AVBL
MOLOKAI 1*     NOT AVBL
PUU ALII*      NOT AVBL
$$

HIZ016-301800-
KAHOOLAWE-

CITY           SKY/WX    TMP DP  RH WIND       PRES   REMARKS
KAHOOLAWE*     NOT AVBL
HAKIOAWA*      NOT AVBL
HONOKANAIA*      N/A     78  68  70 NE9G22    29.95R
KANELOA*         N/A     75  66  73 NE17G29   30.06F
KEALIALALO*    NOT AVBL
LUA MAKIKA*    NOT AVBL
$$

HIZ014>015-301800-
LANAI-

CITY           SKY/WX    TMP DP  RH WIND       PRES   REMARKS
LANAI CITY     FAIR      70  66  87 E5        30.09R
LANAI 1*       NOT AVBL
$$

HIZ017>028-301800-
MAUI-

CITY           SKY/WX    TMP DP  RH WIND       PRES   REMARKS
KAHULUI        PTCLDY    77  68  73 NE13      30.04R
KAPALUA-W MAUI NOT AVBL
HANA AIRPORT     N/A     73  72  94 SW3       30.09R
HANA*            N/A     73 N/A N/A S3          N/A
HALEAKALA SUMM   N/A     48   3  15 SE13G24     N/A
MAALAEA BAY*   NOT AVBL
HALEAKALA*     NOT AVBL
KAUPO GAP*     NOT AVBL
KULA 1*          N/A    N/A N/A N/A E3          N/A
$$

HIZ023>026-301800-
BIG ISLAND OF HAWAII COAST AND LOWER SLOPES-

CITY           SKY/WX    TMP DP  RH WIND       PRES   REMARKS
KAILUA KONA    PTCLDY    77  69  76 E5        29.97S
HILO           MOSUNNY   72  68  87 W7        30.06R
HONOKAA*         N/A     68 N/A N/A VRB1        N/A
KAWAIHAE MWT*    N/A     77 N/A N/A NE5         N/A
KAWAIHAE*        N/A     79 N/A N/A NE3       29.98R
SOUTH POINT*     N/A     73 N/A N/A N12         N/A
UPOLU AIRPORT* NOT AVBL
KAMUELA*       MOSUNNY   64  63  94 NE16      30.13R
HAKALAU*         N/A     46  43  87 SW5         N/A
KALOKO-HONOKO* NOT AVBL
PALI 2*          N/A     68  57  68 S18G28      N/A
KEALAKOMO*       N/A     77  64  65 NE15        N/A
KAUPULEHU*     NOT AVBL
KAPAPALA*        N/A     61  57  86 N5          N/A
LOWER KAHUKU*  NOT AVBL
PUHE CS*       NOT AVBL
PUHO CS*       NOT AVBL
PTA KEAMUKU*     N/A     61  52  72 CALM        N/A
WAIKOLOA*      NOT AVBL
$$

HIZ027>028-301800-
BIG ISLAND OF HAWAII INTERIOR AND SUMMMITS-

CITY           SKY/WX    TMP DP  RH WIND       PRES   REMARKS
BRADSHAW FIELD MOSUNNY   50  35  56 SE6       30.34R
MK VISITOR CEN   N/A     54   0  11 N10         N/A
MAUNA KEA*       N/A     36 -11  13 E16         N/A  WCI  26
MAUNA LOA*     NOT AVBL
MAUNA LOA 1*   NOT AVBL
PTA KIPUKA*      N/A     46  36  66 E5          N/A
PTA RANGE 17*    N/A     73  66  78 SE12G18     N/A
PTA WEST*        N/A     61  50  67 SE13G22     N/A
NENE CABIN*    NOT AVBL
AHUMOA*        NOT AVBL
PTA PORTABLE*  NOT AVBL
PUU MALI*        N/A    N/A N/A N/A E18G29      N/A
$$

HIC003-301800-
NORTHWEST ISLANDS-

CITY           SKY/WX    TMP DP  RH WIND       PRES   REMARKS
MIDWAY ISLAND  CLEAR     79  73  83 SE6       30.12S
MIDWAY NOS*    NOT AVBL
FRENCH FRIGATE NOT AVBL
$$

PHZ110>124-180-301800-
BUOY REPORTS

STATION/POSITION TIME  TEMP    WIND        PRES    WAVE   SWELL
                       AIR SEA DIR/SP/G            HT/PER HT/DIR
                 (UTC) (F)     (DEG/KT/KT) (MB)    (FT/S) (FT/D)
BUOY 51001       NOT AVBL
BUOY 51101       1650   78 80   80/ 16/ 17 1019.2R   7/ 8   5/100
BUOY 51100       NOT AVBL
BUOY 51002       NOT AVBL
BUOY 51003       1650   81 82  100/ 14/ 16 1015.2R   6/ 8   5/ 80
BUOY 51004       1650   80 81   60/ 14/ 16 1015.3R   6/ 8   5/ 70
BARBERS PT BUOY  NOT AVBL
WAIMEA BAY BUOY  1604      80                N/A     5/ 8
KAILUA BAY BUOY  1604      81                N/A     7/ 7   2/120
LANAI BUOY       1645      82                N/A     2/15   2/200
BARBERS PT 2     NOT AVBL
PAUWELA MAUI     1609      80                N/A     6/ 8
HILO             1612      80                N/A     6/ 8   2/ 80
KANEOHE BAY BUOY 1606      80                N/A     6/ 7
HANALEI KAUAI    NOT AVBL
KAHULUI HARBOR   1600   78 80   30/  7/ 12 1016.9R
HONOLULU HARBOR  1600   77 82   40/  4/ 10 1017.7R
KILO NALU        NOT AVBL
HILO HARBOR      1600   72 80  200/  5/  6 1016.9R
MOKUOLOE         1600   78 81   70/ 14/ 17 1017.6R
NAWILIWILI       1600   76 83   50/ 10/ 15 1018.1R
WHOTS BUOY       NOT AVBL
BUOY 51028       NOT AVBL
$$

......................KEY........................................
  SKY/WX - SKY CONDITIONS/PRESENT WEATHER
  TMP    - TEMPERATURE IN FAHRENHEIT
  DWPT   - DEWPOINT IN FAHRENHEIT
  RH     - RELATIVE HUMIDITY IN PERCENT
  WIND   - DIRECTION AND SPEED /MPH FOR ISLANDS...KTS FOR BUOYS/
  PRES   - MEAN SEA LEVEL PRESSURE IN INCHES OF HG
  VSB    - VISIBILITY IN MILES
  HX     - HEAT INDEX
  WCI    - WIND CHILL INDEX
  VRB    - VARIABLE WIND DIRECTION
  N/A    - NOT AVAILABLE




USA.gov is the U.S. government's official web portal to all federal, state and local government web resources and services.